SCP
0 0 0 0 0 0 0 0 0 0 0 0 0 0 0 0 0 0 0 1 1 2 2 3 3 3 3 4 5 5 5 5 4 4 4 3 3 3 3 3 2 2 2
0 0 0 0 0 0 0 0 0 0 0 0 0 0 0 0 0 0 0 0 1 1 2 2 3 3 3 4 5 5 5 5 5 5 4 4 4 4 3 3 3 3 2
0 0 0 0 0 0 0 0 0 0 0 0 0 0 0 0 0 0 0 0 0 1 1 2 2 3 3 3 4 5 6 6 6 5 5 5 5 5 4 4 4 3 3
0 0 0 0 0 0 0 0 0 0 0 0 0 0 0 0 0 0 0 0 0 0 1 1 2 2 2 3 3 4 5 6 6 6 6 6 7 6 5 5 5 4 3
0 0 0 0 0 0 0 0 0 0 0 0 0 0 0 0 0 0 0 0 0 0 0 1 1 1 1 2 3 3 4 6 6 7 6 6 7 7 6 5 5 4 4
0 0 0 0 0 0 0 0 0 0 0 0 0 0 0 0 0 0 0 0 0 0 0 0 0 0 1 1 2 2 3 4 5 6 6 6 6 6 6 5 5 4 3
0 0 0 0 0 0 0 0 0 0 0 0 0 0 0 0 0 0 0 0 0 0 0 0 0 0 0 1 1 1 2 3 4 5 5 6 6 5 5 4 4 3 3
0 0 0 0 0 0 0 0 0 0 0 0 0 0 0 0 0 0 0 0 0 0 0 0 0 0 0 0 0 1 1 2 3 3 4 5 5 5 4 4 4 3 3
0 0 0 0 0 0 0 0 0 0 0 0 0 0 0 0 0 0 0 0 0 0 0 0 0 0 0 0 0 0 1 1 1 1 2 3 4 4 4 4 3 3 3
0 0 0 0 0 0 0 0 0 0 0 0 0 0 0 0 0 0 0 0 0 0 0 0 0 0 0 0 0 0 0 0 1 1 1 2 2 3 3 3 3 2 2
0 0 0 0 0 0 0 0 0 0 0 0 0 0 0 0 0 0 0 0 0 0 0 0 0 0 0 0 0 0 0 0 0 0 1 1 1 2 2 2 2 2 2
0 0 0 0 0 0 0 0 0 0 0 0 0 0 0 0 0 0 0 0 0 0 0 0 0 0 0 0 0 0 0 0 0 0 0 1 1 1 1 1 1 1 1
0 0 0 0 0 0 0 0 0 0 0 0 0 0 0 0 0 0 0 0 0 0 0 0 0 0 0 0 0 0 0 0 0 0 0 0 1 1 1 1 1 1 1
0 0 0 0 0 0 0 0 0 0 0 0 0 0 0 0 0 0 0 0 0 0 0 0 0 0 0 0 0 0 0 0 0 0 0 0 0 0 0 1 1 1 1
0 0 0 0 0 0 0 0 0 0 0 0 0 0 0 0 0 0 0 0 0 0 0 0 0 0 0 0 0 0 0 0 0 0 0 0 0 0 0 0 0 1 1
0 0 0 0 0 0 0 0 0 0 0 0 0 0 0 0 0 0 0 0 0 0 0 0 0 0 0 0 0 0 0 0 0 0 0 0 0 0 0 0 0 0 0
0 0 0 0 0 0 0 0 0 0 0 0 0 0 0 0 0 0 0 0 0 0 0 0 0 0 0 0 0 0 0 0 0 0 0 0 0 0 0 0 0 0 0
0 0 0 0 0 0 0 0 0 0 0 0 0 0 0 0 0 0 0 0 0 0 0 0 0 0 0 0 0 0 0 0 0 0 0 0 0 0 0 0 0 0 0
0 0 0 0 0 0 0 0 0 0 0 0 0 0 0 0 0 0 0 0 0 0 0 0 0 0 0 0 0 0 0 0 0 0 0 0 0 0 0 0 0 0 0
0 0 0 0 0 0 0 0 0 0 0 0 0 0 0 0 0 0 0 0 0 0 0 0 0 0 0 0 0 0 0 0 0 0 0 0 0 0 0 0 0 0 0
0 0 0 0 0 0 0 0 0 0 0 0 0 0 0 0 0 0 0 0 0 0 0 0 0 0 0 0 0 0 0 0 0 0 0 0 0 0 0 0 0 0 0
0 0 0 0 0 0 0 0 0 0 0 0 0 0 0 0 0 0 0 0 0 0 0 0 0 0 0 0 0 0 0 0 0 0 0 0 0 0 0 0 0 0 0
0 0 0 0 0 0 0 0 0 0 0 0 0 0 0 0 0 0 0 0 0 0 0 0 0 0 0 0 0 0 0 0 0 0 0 0 0 0 0 0 0 0 0
0 0 0 0 0 0 0 0 0 0 0 0 0 0 0 0 0 0 0 0 0 0 0 0 0 0 0 0 0 0 0 0 0 0 0 0 0 0 0 0 0 0 0
0 0 0 0 0 0 0 0 0 0 0 0 0 0 0 0 0 0 0 0 0 0 0 0 0 0 0 0 0 0 0 0 0 0 0 0 0 0 0 0 0 0 0
0 0 0 0 0 0 0 0 0 0 0 0 0 0 0 0 0 0 0 0 0 0 0 0 0 0 0 0 0 0 0 0 0 0 0 0 0 0 0 0 0 0 0
Wind_Speed
1 0 0 1 1 1 1 1 2 2 3 4 3 3 4 3 3 3 3 8 9 9 9 9 10 10 10 10 10 10 11 12 12 12 11 11 10 10 9 7 6 4 3
1 1 1 1 1 1 1 1 1 2 2 2 4 4 3 4 4 3 3 5 9 10 10 10 11 11 11 11 11 11 11 12 13 13 13 13 12 11 10 9 8 7 5
3 3 3 2 2 2 2 2 3 2 2 3 3 3 2 3 3 3 3 2 3 7 10 10 11 12 12 12 13 13 13 13 14 14 14 14 14 13 12 11 10 9 8
5 4 4 3 3 3 3 3 3 2 3 3 3 2 1 2 2 2 2 2 2 3 6 9 10 12 13 13 14 15 15 14 14 15 15 15 15 15 15 14 13 11 10
6 5 4 3 3 3 4 3 3 2 3 4 4 2 2 2 2 2 1 2 2 3 3 6 10 11 12 13 14 15 17 17 16 16 16 16 16 16 16 16 15 14 13
7 5 5 5 4 4 4 3 3 3 2 3 4 4 3 3 2 1 1 2 3 5 5 5 5 7 12 14 14 15 17 17 17 17 18 17 16 16 17 17 17 17 15
7 6 5 5 5 4 4 4 2 3 3 3 3 4 3 3 2 1 1 3 5 6 6 6 5 5 6 12 14 16 16 16 16 17 17 16 15 15 17 17 18 18 17
6 6 5 4 4 3 4 4 3 1 2 3 2 3 4 4 2 2 3 4 5 4 6 8 8 8 7 6 9 16 16 15 15 15 15 14 13 13 16 18 19 20 19
6 5 5 4 3 3 2 2 2 1 1 2 1 1 3 4 4 3 4 4 4 5 7 8 10 9 9 7 8 12 16 15 15 15 14 12 11 11 13 17 19 20 21
4 4 4 3 3 2 2 2 2 1 1 2 2 1 3 3 5 5 3 5 7 8 9 9 10 11 11 9 10 16 18 17 17 16 15 14 12 12 12 13 17 20 21
3 4 3 3 3 2 2 2 2 2 1 1 1 2 3 3 5 5 8 7 8 8 9 10 9 10 10 10 8 12 17 17 17 16 16 15 15 15 14 15 15 18 21
2 4 3 3 3 2 2 2 2 2 1 1 2 2 3 4 5 6 8 11 11 10 10 9 10 9 9 9 11 15 16 16 15 15 16 16 16 16 17 17 17 17 19
2 3 3 3 2 2 2 1 1 1 2 2 3 3 4 6 6 7 9 11 12 11 9 8 8 8 8 7 7 14 14 16 15 15 15 15 16 16 17 17 17 18 18
2 3 3 3 3 2 1 1 1 1 2 3 5 6 6 6 6 7 7 9 11 10 9 10 8 8 7 6 8 13 10 15 16 15 15 16 16 17 17 17 16 15 15
3 3 4 3 3 2 1 1 0 1 2 3 5 7 7 7 7 7 7 8 8 10 11 10 8 7 6 6 9 8 8 13 16 17 17 16 17 17 17 16 14 13 13
3 4 4 3 2 1 1 0 1 2 3 4 5 7 8 7 7 7 7 7 8 10 11 7 9 11 10 9 12 10 9 16 17 17 16 15 15 15 14 14 14 14 15
4 4 4 3 3 3 3 2 3 4 5 7 7 9 11 11 8 8 7 8 8 9 12 9 8 9 10 11 10 9 9 9 8 13 12 10 8 8 10 12 14 15 16
4 4 4 4 4 5 4 4 5 5 6 8 10 11 12 10 11 9 8 9 9 9 9 11 9 8 10 11 11 10 8 6 5 7 6 5 6 7 10 12 15 16 17
5 4 4 5 6 5 5 6 6 7 7 9 10 12 13 13 13 10 10 10 8 8 7 9 10 9 8 8 8 8 7 4 4 3 3 5 7 9 12 15 17 19 20
5 5 5 6 6 6 6 6 6 7 8 10 11 12 13 13 13 13 11 10 9 8 8 9 10 10 9 8 6 6 5 2 2 2 3 5 7 11 14 17 20 23 24
6 5 6 6 5 5 5 6 6 8 9 12 13 14 14 17 19 14 11 9 9 8 9 9 10 10 9 7 6 4 4 2 1 1 2 3 4 6 8 14 19 24 27
5 5 5 5 5 4 7 9 9 8 10 13 14 14 14 15 16 18 19 19 16 13 12 11 10 11 11 8 5 4 3 2 2 0 2 4 3 6 7 8 18 24 25
4 4 4 3 4 5 8 10 14 11 11 12 13 13 12 12 15 12 15 18 18 21 21 15 13 13 11 7 5 4 3 2 1 1 2 3 3 6 7 11 23 22 17
3 3 3 4 4 6 11 13 17 11 11 12 13 13 13 14 13 13 12 13 14 13 13 11 10 9 7 4 3 2 4 4 2 1 2 3 4 5 8 10 20 23 14
4 4 4 5 6 8 12 14 16 10 10 13 13 12 13 12 15 17 14 13 13 10 7 5 2 3 4 5 6 5 4 2 1 1 2 3 4 5 6 9 14 23 24
5 5 6 6 6 8 12 15 16 8 10 11 11 12 14 14 16 18 13 11 10 6 4 3 7 10 10 11 11 6 3 2 2 1 3 3 4 4 5 6 10 13 15
Wind_Direction
169 105 52 38 17 16 2 341 345 357 7 12 17 26 30 30 29 24 7 15 14 6 354 341 328 317 306 296 283 270 262 256 249 241 235 231 227 225 221 214 205 196 183
121 103 65 43 34 44 62 58 35 33 26 20 21 25 35 30 27 26 23 16 15 10 4 351 338 328 318 309 301 286 272 262 255 247 240 234 229 227 225 219 209 201 193
86 90 80 59 35 38 57 64 53 57 48 30 12 5 30 24 12 11 12 10 1 3 359 352 345 335 326 319 312 302 289 274 262 253 245 239 232 225 223 221 216 209 200
69 73 69 55 41 47 50 62 45 42 32 10 339 321 345 342 342 336 1 10 360 353 347 346 339 331 324 317 312 306 299 290 278 264 252 244 235 226 219 216 215 212 206
61 69 62 48 43 47 36 32 40 34 20 356 323 305 320 309 300 322 344 357 340 323 316 325 326 323 316 312 310 307 300 293 286 275 264 252 240 229 222 216 212 211 210
55 60 60 45 46 50 38 28 37 39 26 342 323 319 296 283 273 273 321 338 320 314 310 305 305 306 308 306 305 304 300 295 289 281 271 262 249 234 226 221 214 211 210
58 58 59 50 50 57 48 33 26 27 11 350 344 323 304 295 288 241 323 320 310 307 306 305 301 297 296 299 301 299 296 295 293 289 282 275 264 244 231 227 220 215 212
54 64 59 56 48 54 46 39 36 17 354 14 2 324 323 322 337 313 308 297 303 313 314 311 306 296 290 288 288 296 295 291 288 288 287 286 278 259 243 235 229 223 218
58 59 57 57 47 48 39 24 37 41 333 316 307 279 301 297 308 282 283 291 301 304 303 303 297 294 293 290 290 292 288 285 284 281 283 287 283 277 261 247 237 230 224
46 49 48 45 36 25 12 347 36 4 308 303 313 293 265 276 291 301 286 288 293 295 295 296 297 293 288 285 279 281 281 279 276 275 275 278 281 279 274 265 248 235 227
24 26 36 25 10 353 341 340 349 347 323 283 292 300 294 283 256 279 294 295 295 287 289 290 288 286 285 281 278 279 278 274 270 270 272 274 275 275 273 268 261 248 236
352 1 7 3 343 330 319 318 324 339 340 311 298 282 278 283 288 284 290 296 295 293 291 285 282 280 279 278 276 285 287 285 281 278 275 274 274 273 271 267 261 256 247
331 330 346 334 326 319 317 335 5 6 6 340 314 295 283 275 278 282 286 291 292 293 287 281 276 277 278 275 275 288 292 292 289 284 278 274 273 274 271 268 264 258 252
285 300 329 333 336 346 14 55 64 18 11 337 322 308 297 289 281 277 279 289 293 291 285 283 287 275 274 276 274 285 284 284 284 282 277 273 271 270 269 266 265 263 259
300 330 334 334 336 351 37 81 75 329 326 315 311 306 300 295 287 278 271 266 273 286 291 289 288 280 278 277 275 276 271 277 282 279 274 270 267 265 263 260 259 259 259
312 317 315 311 300 288 267 244 275 289 307 307 304 303 301 295 289 280 271 263 256 266 278 280 283 287 289 288 287 284 277 281 281 280 276 271 265 261 256 252 250 252 252
301 297 294 287 270 259 249 251 270 283 297 303 305 306 302 298 290 283 277 269 262 259 271 280 277 283 286 286 289 286 278 273 271 273 272 270 262 254 253 254 254 253 252
293 288 286 279 267 257 245 251 271 284 290 299 304 305 303 300 292 288 281 275 270 265 271 284 289 289 285 285 283 282 281 271 260 268 270 269 270 270 269 266 262 258 254
293 292 284 273 268 263 256 257 265 279 288 293 298 300 299 297 292 287 282 278 275 275 273 283 288 286 283 280 279 278 271 266 251 251 265 277 282 283 280 274 268 261 254
287 285 279 273 270 272 269 269 275 286 292 296 298 296 294 290 286 284 280 276 277 279 280 281 283 283 280 277 266 266 262 229 236 260 280 281 284 288 283 278 273 266 257
284 280 282 284 286 284 280 282 286 295 301 305 304 300 294 290 286 285 286 287 287 283 281 279 279 279 276 273 263 250 249 207 213 241 281 275 284 285 286 285 283 275 265
290 291 292 296 303 305 314 316 319 310 309 308 306 303 299 293 293 296 296 294 289 285 282 276 273 271 271 266 260 242 216 193 215 179 295 283 284 293 295 291 295 291 274
296 305 317 328 330 329 336 332 326 323 312 305 300 298 297 295 298 292 291 293 290 284 277 271 267 263 264 258 241 223 195 169 145 351 301 288 300 301 305 308 319 316 299
327 343 3 8 356 344 343 333 328 322 308 301 296 292 289 290 290 290 292 290 286 284 283 276 264 261 258 249 218 168 129 112 101 22 345 302 310 305 313 322 337 349 357
27 25 21 11 354 336 332 328 329 316 308 306 301 297 293 289 289 293 296 291 290 291 307 344 23 67 81 92 104 108 114 114 86 16 359 326 315 309 320 341 352 9 31
34 21 11 356 339 324 320 322 324 316 311 309 305 302 300 295 297 300 297 289 289 299 331 26 59 64 69 72 71 72 84 91 81 21 354 344 338 336 343 350 5 14 32